Location: Dal�� Lhota
(48.7500°N, 14.0167°E)
Time: 01:58:38
(UTC+00:00)

ISS - Pass Details

Date: 01 July 2021
Orbit: 419 x 421 km, 51.6° (Epoch: 02 August)

Event Time Altitude Azimuth Distance (km) Brightness Sun altitude
Exits shadow 00:46:21 12° 141° (SE) 1,402 -1.4 -14.8°
Maximum altitude 00:46:42 12° 134° (SE) 1,395 -1.3 -14.8°
Drops below altitude 10° 00:47:59 10° 112° (ESE) 1,500 -0.9 -14.7°
Sets 00:51:11 0° 79° (E) 2,369 0.6 -14.5°
